EA3KZ-1 Weather Reports


time (UTC)temp
F
wind
direction
speed
knots
gust
knots
rain 1hr
in
rain 24hr
in
rain mn
in
humidity
%
barometer
mb
20260904040601 72 289 0.9 1.7 0.00 0.00 0.00 81 1016.7
20260904035558 72 232 0.0 1.7 0.00 0.00 0.00 81 1017.0
20260904034556 72 228 0.9 1.7 0.00 0.00 0.00 82 1017.0
20260904033553 72 225 0.9 1.7 0.00 0.00 0.00 82 1016.9
20260904032551 72 203 0.0 1.7 0.00 0.00 0.00 83 1017.0
20260904031548 72 68 0.0 1.7 0.00 0.00 0.00 83 1017.1
20260904030545 72 45 0.0 1.7 0.00 0.00 0.00 83 1017.2
20260904025543 72 236 0.0 1.7 0.00 0.00 0.00 83 1017.2
20260904024540 72 237 1.7 3.5 0.00 0.00 0.00 84 1017.3
20260904023538 72 203 0.9 1.7 0.00 0.00 0.00 85 1017.5
20260904022535 72 180 0.0 1.7 0.00 0.00 0.00 84 1017.5
20260904021533 72 233 0.9 1.7 0.00 0.00 0.00 85 1017.5
20260904020530 71 203 0.9 3.5 0.00 0.00 0.00 86 1017.6
20260904015527 72 204 1.7 3.5 0.00 0.00 0.00 86 1017.6
20260904014525 72 225 0.0 1.7 0.00 0.00 0.00 86 1017.8
20260904013522 72 199 1.7 3.5 0.00 0.00 0.00 86 1018.0
20260904012520 71 158 1.7 1.7 0.00 0.00 0.00 86 1017.9
20260904011517 72 209 0.9 1.7 0.00 0.00 0.00 86 1017.9
20260904010615 72 139 0.9 1.7 0.00 0.00 0.00 87 1018.1
20260904005612 72 158 0.0 1.7 0.00 0.00 0.00 87 1018.2
20260904004610 72 0.0 1.7 0.00 0.00 0.00 88 1018.3
20260904003607 73 152 0.9 1.7 0.00 0.00 0.00 89 1018.4
20260904002604 73 172 0.9 1.7 0.00 0.00 0.00 89 1018.5
20260904001602 73 234 0.9 3.5 0.00 0.00 0.00 90 1018.6
20260904000559 73 225 0.9 1.7 0.00 0.00 0.00 90 1018.6
20260903235557 73 177 0.9 3.5 0.00 0.00 0.00 90 1018.8
20260903234554 73 221 1.7 3.5 0.00 0.00 0.00 90 1018.8
20260903233551 73 188 0.9 3.5 0.00 0.00 0.00 90 1018.8
20260903232549 73 164 1.7 3.5 0.00 0.00 0.00 91 1018.8
20260903231546 74 164 1.7 3.5 0.00 0.00 0.00 90 1018.9
20260903230543 74 191 2.6 5.2 0.00 0.00 0.00 90 1018.9
20260903225541 74 193 2.6 5.2 0.00 0.00 0.00 89 1019.0
20260903224539 74 213 1.7 3.5 0.00 0.00 0.00 89 1018.9
20260903223536 74 203 2.6 5.2 0.00 0.00 0.00 89 1019.0
20260903222533 74 199 1.7 5.2 0.00 0.00 0.00 89 1018.9
20260903221531 74 207 2.6 6.1 0.00 0.00 0.00 88 1018.9
20260903220528 74 206 2.6 5.2 0.00 0.00 0.00 88 1019.0
20260903215525 74 201 3.5 5.2 0.00 0.00 0.00 88 1019.2
20260903214523 75 159 2.6 5.2 0.00 0.00 0.00 87 1019.0
20260903213520 75 192 5.2 7.0 0.00 0.00 0.00 85 1019.1
20260903212517 75 153 2.6 5.2 0.00 0.00 0.00 83 1019.1
20260903211515 75 162 2.6 5.2 0.00 0.00 0.00 82 1019.0
20260903210613 75 181 4.3 7.8 0.00 0.00 0.00 82 1019.0
20260903205610 76 189 3.5 5.2 0.00 0.00 0.00 80 1019.2
20260903204608 76 206 2.6 5.2 0.00 0.00 0.00 80 1019.2
20260903203605 76 202 3.5 5.2 0.00 0.00 0.00 79 1019.3
20260903202602 76 170 1.7 3.5 0.00 0.00 0.00 79 1019.3
20260903201600 77 177 0.9 3.5 0.00 0.00 0.00 79 1019.3
20260903200557 77 183 1.7 3.5 0.00 0.00 0.00 79 1019.2
20260903195554 77 176 1.7 3.5 0.00 0.00 0.00 77 1019.1
20260903194552 77 172 2.6 3.5 0.00 0.00 0.00 77 1019.0
20260903193549 77 173 2.6 5.2 0.00 0.00 0.00 77 1019.0
20260903192547 78 180 3.5 6.1 0.00 0.00 0.00 75 1018.8
20260903191544 78 171 2.6 5.2 0.00 0.00 0.00 74 1018.8
20260903190541 78 177 1.7 3.5 0.00 0.00 0.00 74 1018.6
20260903185539 78 149 2.6 5.2 0.00 0.00 0.00 73 1018.4
20260903184536 79 118 1.7 3.5 0.00 0.00 0.00 73 1018.4
20260903183534 79 135 1.7 6.1 0.00 0.00 0.00 72 1018.3
20260903182531 80 101 1.7 6.1 0.00 0.00 0.00 72 1018.3
20260903181528 80 126 2.6 6.1 0.00 0.00 0.00 72 1018.2
20260903180526 80 138 4.3 7.0 0.00 0.00 0.00 71 1018.2
20260903175523 81 156 2.6 7.0 0.00 0.00 0.00 70 1018.0
20260903174521 81 118 3.5 7.0 0.00 0.00 0.00 70 1018.1
20260903173518 81 119 5.2 9.6 0.00 0.00 0.00 69 1018.0
20260903172515 82 124 4.3 9.6 0.00 0.00 0.00 68 1017.9
20260903171613 82 218 3.5 11.3 0.00 0.00 0.00 67 1017.9
20260903170610 83 127 4.3 11.3 0.00 0.00 0.00 67 1017.8
20260903165608 83 178 6.1 12.2 0.00 0.00 0.00 66 1017.8
20260903164605 83 160 6.1 11.3 0.00 0.00 0.00 65 1017.9
20260903163603 84 178 5.2 11.3 0.00 0.00 0.00 64 1017.9
20260903162600 85 162 5.2 11.3 0.00 0.00 0.00 64 1017.8
20260903161558 85 151 7.0 9.6 0.00 0.00 0.00 62 1017.8
20260903160555 87 101 4.3 9.6 0.00 0.00 0.00 59 1017.8
20260903155552 87 142 4.3 9.6 0.00 0.00 0.00 58 1017.8
20260903154550 87 123 5.2 11.3 0.00 0.00 0.00 56 1017.9
20260903153547 88 124 3.5 7.8 0.00 0.00 0.00 53 1017.8
20260903152544 89 120 3.5 9.6 0.00 0.00 0.00 52 1017.9
20260903151542 90 138 5.2 11.3 0.00 0.00 0.00 49 1017.8
20260903150539 90 129 4.3 9.6 0.00 0.00 0.00 49 1017.8
20260903145537 90 205 2.6 7.0 0.00 0.00 0.00 50 1017.9
20260903144534 90 99 2.6 7.0 0.00 0.00 0.00 49 1017.9
20260903143531 89 146 3.5 9.6 0.00 0.00 0.00 49 1017.9
20260903142529 90 84 3.5 7.0 0.00 0.00 0.00 49 1017.8
20260903141526 90 85 2.6 7.0 0.00 0.00 0.00 50 1018.0
20260903140524 89 188 3.5 9.6 0.00 0.00 0.00 51 1018.0
20260903135521 89 115 4.3 9.6 0.00 0.00 0.00 51 1018.1
20260903134519 90 94 3.5 7.0 0.00 0.00 0.00 50 1018.0
20260903133516 90 112 2.6 7.8 0.00 0.00 0.00 50 1018.3
20260903132613 90 186 2.6 9.6 0.00 0.00 0.00 49 1018.3
20260903131611 89 96 2.6 9.6 0.00 0.00 0.00 49 1018.3
20260903130609 90 128 2.6 7.0 0.00 0.00 0.00 49 1018.3
20260903125605 90 82 1.7 6.1 0.00 0.00 0.00 47 1018.5
20260903124602 91 102 1.7 5.2 0.00 0.00 0.00 45 1018.4
20260903123600 89 75 3.5 7.0 0.00 0.00 0.00 46 1018.4
20260903122557 89 43 3.5 7.8 0.00 0.00 0.00 44 1018.5
20260903121555 90 66 2.6 6.1 0.00 0.00 0.00 44 1018.4
20260903120552 90 90 1.7 5.2 0.00 0.00 0.00 43 1018.4
20260903115550 89 23 3.5 9.6 0.00 0.00 0.00 44 1018.6
20260903114547 90 103 3.5 9.6 0.00 0.00 0.00 43 1018.5
20260903113544 90 240 1.7 3.5 0.00 0.00 0.00 42 1018.7
20260903112542 89 53 1.7 6.1 0.00 0.00 0.00 41 1018.8
20260903111539 88 105 3.5 9.6 0.00 0.00 0.00 42 1019.0
20260903110537 88 105 2.6 7.0 0.00 0.00 0.00 41 1019.0
20260903105534 89 355 2.6 7.8 0.00 0.00 0.00 40 1019.1
20260903104531 88 14 1.7 7.0 0.00 0.00 0.00 41 1019.2
20260903103529 88 107 0.9 3.5 0.00 0.00 0.00 42 1019.3
20260903102526 87 112 1.7 3.5 0.00 0.00 0.00 43 1019.4
20260903101524 87 130 2.6 5.2 0.00 0.00 0.00 43 1019.6
20260903100521 86 110 3.5 6.1 0.00 0.00 0.00 43 1019.5
20260903095518 87 69 1.7 5.2 0.00 0.00 0.00 40 1019.5
20260903094516 86 353 1.7 5.2 0.00 0.00 0.00 42 1019.6
20260903093613 85 116 2.6 5.2 0.00 0.00 0.00 44 1019.7
20260903092611 86 97 1.7 5.2 0.00 0.00 0.00 44 1019.7
20260903091608 85 113 0.9 3.5 0.00 0.00 0.00 46 1019.6
20260903090606 85 14 0.9 3.5 0.00 0.00 0.00 47 1019.5
20260903085603 84 110 1.7 5.2 0.00 0.00 0.00 47 1019.4
20260903084601 83 96 1.7 3.5 0.00 0.00 0.00 51 1019.4
20260903083558 83 45 1.7 3.5 0.00 0.00 0.00 51 1019.3
20260903082555 83 126 0.9 3.5 0.00 0.00 0.00 50 1019.1
20260903081553 82 113 0.9 3.5 0.00 0.00 0.00 52 1019.2
20260903080550 81 114 1.7 3.5 0.00 0.00 0.00 53 1019.1
20260903075548 82 130 0.0 1.7 0.00 0.00 0.00 53 1019.2
20260903074545 82 0.0 1.7 0.00 0.00 0.00 52 1019.1
20260903073542 80 113 0.9 1.7 0.00 0.00 0.00 53 1019.1
20260903072540 79 113 0.9 1.7 0.00 0.00 0.00 54 1019.2
20260903071537 78 123 0.9 1.7 0.00 0.00 0.00 55 1019.1
20260903070535 78 99 0.9 1.7 0.00 0.00 0.00 55 1019.0
20260903065532 80 106 0.0 1.7 0.00 0.00 0.00 53 1019.0
20260903064559 79 0.0 0.0 0.00 0.00 0.00 54 1018.9
20260903063557 78 0.0 1.7 0.00 0.00 0.00 55 1018.8
20260903062554 77 0.0 0.0 0.00 0.00 0.00 57 1018.7
20260903061552 76 0.0 0.0 0.00 0.00 0.00 58 1018.5
20260903060549 74 225 0.0 1.7 0.00 0.00 0.00 60 1018.5
20260903055546 73 0.0 1.7 0.00 0.00 0.00 62 1018.4
20260903054544 73 248 0.9 1.7 0.00 0.00 0.00 63 1018.4
20260903053541 72 234 0.9 1.7 0.00 0.00 0.00 64 1018.3
20260903052538 72 0.0 0.0 0.00 0.00 0.00 64 1018.2
20260903051536 72 277 1.7 3.5 0.00 0.00 0.00 64 1018.1
20260903050533 72 225 0.0 1.7 0.00 0.00 0.00 65 1018.1
20260903045531 72 218 0.0 1.7 0.00 0.00 0.00 64 1018.1
20260903044528 72 0.0 0.0 0.00 0.00 0.00 64 1018.0
20260903043526 73 0.0 1.7 0.00 0.00 0.00 63 1018.1
20260903042523 73 225 1.7 3.5 0.00 0.00 0.00 63 1018.0
20260903041520 73 225 0.0 1.7 0.00 0.00 0.00 63 1018.0